{"data":{"norad_id":63087,"epoch":"2026-09-21T00:32:36.484800Z","epoch_age_seconds":117106,"freshness":"FRESH","line1":"1 63087U 25037L   26264.02264450  .00017693  00000+0  61835-3 0  9995","line2":"2 63087  69.9973 219.4568 0003460 276.0319  84.0461 15.29586559 88010","mean_motion":15.29586559,"eccentricity":0.000346,"inclination_deg":69.9973,"raan_deg":219.4568,"arg_perigee_deg":276.0319,"mean_anomaly_deg":84.0461,"bstar":0.00061835,"rev_number":8801,"period_min":94.143086674443,"perigee_km":474.67541201917,"apogee_km":479.41919955877,"semimajor_km":6855.184305789,"source":"CELESTRAK","updated_at":"2026-09-22T09:00:49.759384Z"}}